When you browse on this site, cookies collect data to enhance your experience and personalize the content and advertising you see.
Visit our Privacy Policy to learn more. By continuing to use the site, you agree to this use of cookies and data.
  • In Portugal
  • List of Countries
  • For 7 days
  • Water Temperature
  • Weather Map
  • Weather Widgets
  • user-avatar
    Login

    Hourly Weather Yeghegnadzor

    Today, 29 February, Saturday

    Time Temperature Precipitation Wind Pressure Humidity
    00:00 +3°C° 0 mm 1 mps 648 mmHg 54%
    01:00 +3°C° 0 mm 1 mps 648 mmHg 56%
    02:00 +2°C° 0 mm 2 mps 648 mmHg 57%
    03:00 +2°C° 0 mm 2 mps 648 mmHg 59%
    04:00 +2°C° 0 mm 2 mps 648 mmHg 60%
    05:00 +3°C° 0 mm 1 mps 648 mmHg 61%
    06:00 +3°C° 0 mm 1 mps 648 mmHg 62%
    07:00 +5°C° 0 mm 1 mps 648 mmHg 61%
    08:00 +6°C° 0 mm 1 mps 649 mmHg 61%
    09:00 +7°C° 0 mm 1 mps 649 mmHg 60%
    10:00 +7°C° 0 mm 2 mps 649 mmHg 61%
    11:00 +7°C° 0 mm 2 mps 649 mmHg 62%
    12:00 +8°C° 0 mm 2 mps 648 mmHg 63%
    13:00 +8°C° 0 mm 2 mps 648 mmHg 63%
    14:00 +8°C° 0 mm 2 mps 647 mmHg 63%
    15:00 +9°C° 0 mm 2 mps 647 mmHg 63%
    16:00 +8°C° 0 mm 2 mps 647 mmHg 66%
    17:00 +7°C° 0 mm 2 mps 647 mmHg 69%
    18:00 +6°C° 0 mm 2 mps 647 mmHg 72%
    19:00 +6°C° 0.9 mm 2 mps 647 mmHg 78%
    20:00 +5°C° 0.9 mm 2 mps 647 mmHg 84%
    21:00 +5°C° 0.9 mm 2 mps 646 mmHg 91%
    22:00 +5°C° 0.3 mm 2 mps 646 mmHg 90%
    23:00 +5°C° 0.3 mm 2 mps 646 mmHg 89%

    Tomorrow, 1 March, Sunday

    Time Temperature Precipitation Wind Pressure Humidity
    00:00 +5°C° 0.3 mm 2 mps 646 mmHg 88%
    01:00 +5°C° 0.1 mm 2 mps 646 mmHg 87%
    02:00 +4°C° 0.1 mm 2 mps 646 mmHg 86%
    03:00 +4°C° 0.1 mm 2 mps 645 mmHg 85%
    04:00 +4°C° 0.1 mm 2 mps 645 mmHg 85%
    05:00 +4°C° 0.1 mm 1 mps 646 mmHg 85%
    06:00 +4°C° 0.1 mm 1 mps 646 mmHg 85%
    07:00 +5°C° 0.1 mm 1 mps 646 mmHg 83%
    08:00 +6°C° 0.1 mm 1 mps 647 mmHg 82%
    09:00 +7°C° 0.1 mm 1 mps 647 mmHg 80%
    10:00 +8°C° 0.1 mm 1 mps 647 mmHg 78%
    11:00 +8°C° 0.1 mm 1 mps 647 mmHg 76%
    12:00 +9°C° 0.1 mm 1 mps 647 mmHg 74%
    13:00 +9°C° 0.2 mm 1 mps 647 mmHg 72%
    14:00 +9°C° 0.2 mm 1 mps 647 mmHg 71%
    15:00 +9°C° 0.2 mm 1 mps 647 mmHg 70%
    16:00 +9°C° 0.2 mm 1 mps 647 mmHg 72%
    17:00 +7°C° 0.2 mm 2 mps 647 mmHg 74%
    18:00 +6°C° 0.2 mm 2 mps 647 mmHg 76%
    19:00 +6°C° 0 mm 2 mps 647 mmHg 76%
    20:00 +5°C° 0 mm 2 mps 648 mmHg 76%
    21:00 +5°C° 0 mm 2 mps 648 mmHg 76%
    22:00 +4°C° 0 mm 2 mps 648 mmHg 76%
    23:00 +4°C° 0 mm 2 mps 648 mmHg 76%

    Day after tomorrow, 2 March, Monday

    Time Temperature Precipitation Wind Pressure Humidity
    00:00 +3°C° 0 mm 2 mps 649 mmHg 77%
    01:00 +3°C° 0 mm 2 mps 649 mmHg 76%
    02:00 +3°C° 0 mm 2 mps 649 mmHg 76%
    03:00 +3°C° 0 mm 2 mps 649 mmHg 76%
    04:00 +2°C° 0 mm 2 mps 649 mmHg 76%
    05:00 +2°C° 0 mm 2 mps 650 mmHg 76%
    06:00 +2°C° 0 mm 2 mps 650 mmHg 76%
    07:00 +3°C° 0 mm 1 mps 651 mmHg 74%
    08:00 +4°C° 0 mm 1 mps 652 mmHg 72%
    09:00 +5°C° 0 mm 1 mps 652 mmHg 70%
    10:00 +5°C° 0 mm 1 mps 652 mmHg 69%
    11:00 +6°C° 0 mm 1 mps 652 mmHg 68%
    12:00 +7°C° 0 mm 1 mps 653 mmHg 67%
    13:00 +7°C° 0.1 mm 1 mps 652 mmHg 68%
    14:00 +7°C° 0.1 mm 1 mps 652 mmHg 68%
    15:00 +6°C° 0.1 mm 2 mps 652 mmHg 69%
    16:00 +6°C° 0.1 mm 1 mps 652 mmHg 72%
    17:00 +6°C° 0.1 mm 1 mps 652 mmHg 74%
    18:00 +5°C° 0.1 mm 1 mps 652 mmHg 77%
    19:00 +4°C° 0 mm 1 mps 653 mmHg 78%
    20:00 +3°C° 0 mm 0 mps 653 mmHg 79%
    21:00 +3°C° 0 mm 0 mps 653 mmHg 80%
    22:00 +2°C° 0 mm 0 mps 653 mmHg 81%
    23:00 +2°C° 0 mm 0 mps 653 mmHg 81%

    3 March, Tuesday

    Time Temperature Precipitation Wind Pressure Humidity
    00:00 +1°C° 0 mm 0 mps 653 mmHg 82%
    01:00 +1°C° 0 mm 0 mps 653 mmHg 81%
    02:00 +1°C° 0 mm 0 mps 653 mmHg 81%
    03:00 +1°C° 0 mm 0 mps 653 mmHg 80%
    04:00 +1°C° 0 mm 0 mps 653 mmHg 79%
    05:00 0°C° 0 mm 0 mps 653 mmHg 79%
    06:00 0°C° 0 mm 0 mps 653 mmHg 78%
    07:00 +2°C° 0 mm 0 mps 654 mmHg 74%
    08:00 +3°C° 0 mm 0 mps 655 mmHg 71%
    09:00 +4°C° 0 mm 0 mps 655 mmHg 67%
    10:00 +5°C° 0 mm 0 mps 655 mmHg 66%
    11:00 +7°C° 0 mm 1 mps 655 mmHg 66%
    12:00 +8°C° 0 mm 1 mps 655 mmHg 65%
    13:00 +8°C° 0 mm 1 mps 655 mmHg 65%
    14:00 +8°C° 0 mm 1 mps 654 mmHg 64%
    15:00 +9°C° 0 mm 1 mps 654 mmHg 64%
    16:00 +8°C° 0 mm 1 mps 654 mmHg 67%
    17:00 +7°C° 0 mm 1 mps 654 mmHg 70%
    18:00 +5°C° 0 mm 0 mps 654 mmHg 73%
    19:00 +4°C° 0 mm 0 mps 654 mmHg 73%
    20:00 +4°C° 0 mm 0 mps 654 mmHg 73%
    21:00 +3°C° 0 mm 0 mps 654 mmHg 73%
    22:00 +3°C° 0 mm 0 mps 654 mmHg 72%
    23:00 +4°C° 0 mm 1 mps 654 mmHg 70%

    4 March, Wednesday

    Time Temperature Precipitation Wind Pressure Humidity
    00:00 +4°C° 0 mm 1 mps 654 mmHg 69%
    01:00 +3°C° 0 mm 1 mps 654 mmHg 68%
    02:00 +3°C° 0 mm 1 mps 654 mmHg 67%
    03:00 +3°C° 0 mm 1 mps 654 mmHg 66%
    04:00 +2°C° 0 mm 0 mps 654 mmHg 65%
    05:00 +2°C° 0 mm 0 mps 654 mmHg 64%
    06:00 +1°C° 0 mm 0 mps 654 mmHg 64%
    07:00 +3°C° 0 mm 0 mps 655 mmHg 60%
    08:00 +5°C° 0 mm 0 mps 655 mmHg 57%
    09:00 +6°C° 0 mm 0 mps 656 mmHg 54%
    10:00 +7°C° 0 mm 0 mps 656 mmHg 55%
    11:00 +9°C° 0 mm 1 mps 656 mmHg 56%
    12:00 +9°C° 0 mm 1 mps 655 mmHg 57%
    13:00 +10°C° 0 mm 1 mps 655 mmHg 57%
    14:00 +10°C° 0 mm 1 mps 655 mmHg 56%
    15:00 +11°C° 0 mm 1 mps 655 mmHg 56%
    16:00 +9°C° 0 mm 1 mps 655 mmHg 59%
    17:00 +8°C° 0 mm 1 mps 654 mmHg 61%
    18:00 +7°C° 0 mm 1 mps 654 mmHg 64%
    19:00 +6°C° 0 mm 1 mps 654 mmHg 62%
    20:00 +6°C° 0 mm 1 mps 654 mmHg 61%
    21:00 +5°C° 0 mm 1 mps 654 mmHg 60%
    22:00 +5°C° 0 mm 1 mps 654 mmHg 59%
    23:00 +5°C° 0 mm 1 mps 654 mmHg 58%

    5 March, Thursday

    Time Temperature Precipitation Wind Pressure Humidity
    00:00 +5°C° 0 mm 1 mps 654 mmHg 56%
    01:00 +5°C° 0 mm 1 mps 654 mmHg 56%
    02:00 +4°C° 0 mm 1 mps 654 mmHg 56%
    03:00 +4°C° 0 mm 1 mps 653 mmHg 55%
    04:00 +4°C° 0 mm 1 mps 653 mmHg 55%
    05:00 +4°C° 0 mm 1 mps 653 mmHg 55%
    06:00 +4°C° 0 mm 1 mps 653 mmHg 55%
    07:00 +6°C° 0 mm 1 mps 654 mmHg 52%
    08:00 +7°C° 0 mm 1 mps 654 mmHg 49%
    09:00 +8°C° 0 mm 1 mps 654 mmHg 47%
    10:00 +9°C° 0 mm 1 mps 654 mmHg 47%
    11:00 +10°C° 0 mm 1 mps 654 mmHg 47%
    12:00 +11°C° 0 mm 1 mps 654 mmHg 48%
    13:00 +11°C° 0 mm 1 mps 653 mmHg 47%
    14:00 +11°C° 0 mm 1 mps 653 mmHg 46%
    15:00 +12°C° 0 mm 1 mps 653 mmHg 45%
    16:00 +11°C° 0 mm 1 mps 652 mmHg 46%
    17:00 +9°C° 0 mm 1 mps 652 mmHg 47%
    18:00 +8°C° 0 mm 1 mps 651 mmHg 48%
    19:00 +8°C° 0 mm 1 mps 651 mmHg 46%
    20:00 +8°C° 0 mm 1 mps 651 mmHg 45%
    21:00 +7°C° 0 mm 1 mps 651 mmHg 43%
    22:00 +7°C° 0 mm 1 mps 651 mmHg 43%
    23:00 +7°C° 0 mm 1 mps 651 mmHg 42%
    Show more